Weerawila Airport

Jump to: basic info | weather | frequencies | runways | comments

Related pages: nearby airports | nearby navaids | notams | map

Basic information (top)

Codes: WRZ VCCW
Location: lon 6.254490, lat 81.235199, elev 50 ft / 15 m msl
Status: small_airport
Scheduled airline service: yes
Links: Wikipedia Mobile

Weather (top)

Current conditions for Mattala Rajapaksa International Airport 7nm (13km) SW (rec'd 2014/11/22 20:10Z):

VCRI 222010Z 02007KT 9999 FEW016 24/22 Q1010 NOSIG

Airport forecast for Bandaranaike International Colombo Airport 98nm (181km) NW (rec'd 2014/11/22 18:00Z):

TAF VCBI 221540Z 2218/2324 05008KT 9999 SCT016 TX29/2308Z TN23/2300Z 
      TEMPO 2218/2304 6000 -SHRA/TSRA SCT010 BKN016 OVC100 FEW016CB 
      TEMPO 2308/2318 6000 -TSRA/SHRA SCT010 BKN016 FEW018CB 
      TEMPO 2322/2324 5000 BR

Frequencies (top)

Verify before use: may be inaccurate or out of date.

TWR: 118.1 MHz (TWR)

Runways (top)

07/25: 4,000 x 93 ft (1,219 x 28 m) — paved — not lighted

Latest comments (top)

No comments yet for Weerawila Airport

More... (top)

See also NOTAMs and nearby airports and navaids, or visit the Weerawila Airport page at the main OurAirports website..